Location: Bord�res
(43.2000°N, 0.2167°W)
Time: 13:14:10
(UTC+00:00)

Cosmos 2322 Rocket - Pass Details

Date: 03 March 2021
Orbit: 832 x 852 km, 71.0° (Epoch: 20 April)

Event Time Altitude Azimuth Distance (km) Brightness Sun altitude
Rises 19:04:46 0° 215° (SW) 3,362 5.8 -13.9°
Reaches altitude 10° 19:07:14 10° 219° (SW) 2,433 5.1 -14.4°
Maximum altitude 19:12:44 58° 298° (WNW) 964 2.8 -15.4°
Drops below altitude 10° 19:18:16 10° 18° (NNE) 2,453 4.5 -16.4°
Sets 19:20:46 0° 22° (NNE) 3,394 5.2 -16.8°
